QPF
0.03 0.03 0.03 0.04 0.04 0.04 0.05 0.07 0.07 0.08 0.06 0.05 0.03 0.02 0.02 0.03 0.05 0.08 0.08 0.06 0.04 0.05 0.05 0.06 0.07 0.06 0.05 0.04 0.03 0.03 0.02 0.02 0.01 0.01 0.01 0.01 0.01 0.01 0.01 0.02 0.06 0.10 0.09
0.03 0.03 0.03 0.03 0.03 0.04 0.05 0.06 0.07 0.09 0.07 0.04 0.03 0.03 0.04 0.06 0.08 0.09 0.07 0.06 0.04 0.04 0.05 0.06 0.05 0.05 0.04 0.02 0.02 0.01 0.01 0.01 0.01 0.01 0.01 0.01 0.01 0.01 0.01 0.02 0.09 0.10 0.12
0.03 0.03 0.04 0.04 0.04 0.04 0.04 0.03 0.04 0.04 0.03 0.03 0.03 0.04 0.06 0.06 0.06 0.05 0.05 0.05 0.06 0.07 0.07 0.05 0.04 0.05 0.05 0.03 0.01 0.01 0.01 0.01 0.01 0.01 0.01 0.01 0.01 0.01 0.01 0.02 0.06 0.10 0.12
0.04 0.06 0.07 0.06 0.05 0.04 0.04 0.04 0.04 0.05 0.05 0.04 0.05 0.04 0.05 0.04 0.03 0.03 0.04 0.03 0.05 0.06 0.05 0.03 0.04 0.05 0.04 0.03 0.01 0.01 0.01 0.01 0.02 0.02 0.03 0.04 0.04 0.03 0.03 0.03 0.04 0.05 0.09
0.05 0.06 0.07 0.06 0.04 0.04 0.03 0.03 0.04 0.06 0.07 0.08 0.06 0.05 0.03 0.02 0.02 0.02 0.01 0.02 0.03 0.02 0.02 0.02 0.04 0.04 0.03 0.03 0.03 0.01 0.01 0.01 0.01 0.02 0.03 0.03 0.04 0.03 0.03 0.02 0.02 0.02 0.03
0.05 0.09 0.07 0.04 0.04 0.04 0.03 0.03 0.03 0.03 0.04 0.05 0.04 0.04 0.03 0.03 0.03 0.02 0.02 0.03 0.02 0.02 0.03 0.02 0.01 0.02 0.02 0.03 0.03 0.03 0.01 0.01 0.01 0.01 0.00 0.01 0.01 0.02 0.02 0.02 0.02 0.01 0.02
0.04 0.05 0.04 0.04 0.06 0.05 0.04 0.05 0.06 0.08 0.08 0.06 0.05 0.06 0.08 0.07 0.05 0.03 0.03 0.04 0.04 0.03 0.02 0.02 0.01 0.02 0.03 0.03 0.03 0.03 0.02 0.02 0.01 0.01 0.01 0.01 0.01 0.02 0.02 0.02 0.02 0.01 0.01
0.04 0.05 0.05 0.08 0.07 0.05 0.05 0.08 0.09 0.12 0.14 0.12 0.10 0.12 0.11 0.08 0.06 0.06 0.07 0.07 0.06 0.04 0.02 0.02 0.02 0.02 0.03 0.03 0.04 0.05 0.04 0.03 0.03 0.03 0.03 0.03 0.03 0.04 0.03 0.03 0.03 0.02 0.01
0.03 0.07 0.07 0.06 0.05 0.04 0.04 0.05 0.05 0.07 0.09 0.13 0.18 0.15 0.11 0.08 0.06 0.07 0.09 0.09 0.10 0.08 0.05 0.04 0.05 0.05 0.04 0.05 0.05 0.05 0.06 0.06 0.05 0.05 0.05 0.05 0.04 0.05 0.04 0.05 0.06 0.05 0.02
0.05 0.08 0.05 0.03 0.03 0.03 0.02 0.03 0.04 0.05 0.05 0.08 0.11 0.07 0.07 0.09 0.06 0.06 0.06 0.05 0.04 0.03 0.03 0.03 0.05 0.06 0.05 0.05 0.06 0.06 0.06 0.06 0.05 0.06 0.06 0.06 0.05 0.05 0.05 0.05 0.05 0.05 0.03
0.07 0.05 0.03 0.04 0.04 0.03 0.03 0.04 0.04 0.04 0.04 0.06 0.06 0.04 0.04 0.04 0.03 0.03 0.03 0.03 0.01 0.00 0.01 0.02 0.03 0.05 0.06 0.06 0.06 0.07 0.08 0.06 0.05 0.05 0.06 0.05 0.05 0.05 0.04 0.04 0.04 0.04 0.03
0.07 0.03 0.04 0.05 0.04 0.03 0.03 0.03 0.03 0.04 0.05 0.05 0.04 0.04 0.05 0.04 0.03 0.02 0.02 0.01 0.01 0.01 0.01 0.01 0.03 0.04 0.03 0.03 0.04 0.04 0.05 0.06 0.07 0.08 0.08 0.07 0.05 0.05 0.06 0.05 0.04 0.04 0.04
0.03 0.03 0.04 0.04 0.03 0.02 0.02 0.02 0.03 0.04 0.04 0.05 0.05 0.05 0.04 0.04 0.03 0.02 0.01 0.02 0.02 0.01 0.01 0.01 0.01 0.02 0.03 0.03 0.03 0.03 0.04 0.05 0.07 0.10 0.10 0.05 0.04 0.05 0.06 0.05 0.04 0.03 0.04
0.05 0.03 0.03 0.03 0.02 0.02 0.01 0.02 0.03 0.03 0.04 0.04 0.03 0.03 0.02 0.02 0.03 0.03 0.02 0.02 0.02 0.02 0.02 0.01 0.01 0.02 0.03 0.03 0.03 0.03 0.03 0.04 0.05 0.05 0.03 0.02 0.02 0.03 0.04 0.05 0.05 0.04 0.04
0.05 0.04 0.03 0.02 0.02 0.02 0.02 0.02 0.02 0.02 0.02 0.02 0.02 0.01 0.01 0.02 0.03 0.04 0.03 0.03 0.02 0.02 0.02 0.03 0.03 0.03 0.03 0.03 0.03 0.03 0.03 0.03 0.03 0.02 0.01 0.01 0.01 0.02 0.02 0.02 0.02 0.02 0.03
0.04 0.03 0.02 0.02 0.01 0.01 0.02 0.02 0.01 0.01 0.01 0.02 0.02 0.01 0.01 0.01 0.01 0.02 0.03 0.03 0.03 0.03 0.04 0.04 0.05 0.04 0.04 0.03 0.04 0.03 0.02 0.02 0.01 0.01 0.01 0.01 0.02 0.02 0.02 0.02 0.02 0.01 0.02
0.03 0.03 0.02 0.02 0.01 0.01 0.02 0.02 0.01 0.00 0.01 0.01 0.02 0.01 0.01 0.01 0.01 0.01 0.02 0.03 0.03 0.03 0.04 0.05 0.05 0.05 0.05 0.05 0.04 0.03 0.02 0.01 0.01 0.01 0.01 0.02 0.02 0.02 0.01 0.01 0.01 0.02 0.02
0.03 0.03 0.02 0.03 0.03 0.03 0.03 0.02 0.01 0.01 0.01 0.01 0.01 0.01 0.01 0.01 0.01 0.01 0.01 0.01 0.01 0.02 0.02 0.03 0.04 0.04 0.05 0.05 0.04 0.02 0.01 0.01 0.01 0.01 0.01 0.03 0.03 0.02 0.01 0.01 0.02 0.02 0.02
0.01 0.03 0.04 0.03 0.03 0.04 0.04 0.02 0.01 0.01 0.01 0.01 0.01 0.01 0.01 0.01 0.02 0.01 0.01 0.01 0.01 0.01 0.01 0.01 0.02 0.03 0.03 0.03 0.03 0.02 0.01 0.01 0.01 0.01 0.02 0.03 0.02 0.01 0.01 0.01 0.02 0.02 0.02
0.02 0.02 0.02 0.03 0.03 0.04 0.05 0.04 0.03 0.02 0.02 0.01 0.01 0.02 0.01 0.01 0.02 0.02 0.01 0.01 0.01 0.01 0.01 0.02 0.02 0.02 0.02 0.02 0.02 0.01 0.00 0.00 0.01 0.01 0.02 0.02 0.01 0.00 0.00 0.01 0.02 0.02 0.03
0.01 0.01 0.02 0.02 0.03 0.04 0.05 0.05 0.04 0.03 0.02 0.03 0.03 0.04 0.02 0.02 0.03 0.03 0.03 0.03 0.02 0.02 0.02 0.02 0.02 0.02 0.02 0.01 0.01 0.01 0.00 0.00 0.01 0.02 0.01 0.01 0.01 0.01 0.00 0.01 0.01 0.02 0.02
0.01 0.01 0.01 0.01 0.02 0.03 0.04 0.05 0.03 0.03 0.02 0.03 0.04 0.05 0.05 0.04 0.04 0.04 0.04 0.04 0.04 0.03 0.02 0.02 0.01 0.01 0.01 0.01 0.01 0.01 0.01 0.01 0.01 0.02 0.01 0.01 0.01 0.01 0.01 0.01 0.01 0.01 0.02
0.01 0.02 0.01 0.01 0.02 0.03 0.03 0.04 0.04 0.06 0.05 0.03 0.04 0.04 0.04 0.06 0.07 0.06 0.04 0.04 0.04 0.04 0.03 0.01 0.01 0.01 0.01 0.01 0.01 0.01 0.01 0.01 0.01 0.01 0.01 0.01 0.00 0.00 0.01 0.01 0.01 0.01 0.01
0.02 0.03 0.03 0.03 0.04 0.04 0.04 0.05 0.05 0.06 0.07 0.03 0.03 0.03 0.04 0.06 0.08 0.08 0.05 0.03 0.03 0.02 0.02 0.01 0.01 0.01 0.01 0.02 0.02 0.02 0.02 0.01 0.01 0.01 0.01 0.01 0.01 0.00 0.00 0.01 0.01 0.01 0.01
0.04 0.04 0.05 0.06 0.06 0.06 0.06 0.08 0.06 0.05 0.05 0.03 0.02 0.03 0.04 0.03 0.05 0.06 0.05 0.05 0.03 0.03 0.02 0.01 0.01 0.02 0.02 0.02 0.02 0.02 0.02 0.01 0.01 0.00 0.00 0.00 0.00 0.00 0.00 0.01 0.01 0.01 0.01
0.05 0.05 0.06 0.06 0.06 0.07 0.08 0.09 0.08 0.05 0.03 0.02 0.02 0.02 0.04 0.03 0.03 0.03 0.04 0.05 0.04 0.03 0.02 0.02 0.02 0.04 0.03 0.02 0.01 0.01 0.01 0.01 0.01 0.01 0.00 0.00 0.00 0.00 0.00 0.01 0.01 0.01 0.01
MSLP
1009.34 1009.33 1009.27 1009.19 1009.12 1009.09 1009.16 1009.35 1009.67 1010.12 1010.66 1011.24 1011.81 1012.32 1012.73 1013.04 1013.24 1013.38 1013.49 1013.59 1013.74 1013.95 1014.22 1014.57 1014.96 1015.39 1015.83 1016.27 1016.70 1017.09 1017.44 1017.74 1017.97 1018.13 1018.21 1018.21 1018.12 1017.97 1017.78 1017.58 1017.39 1017.24 1017.14
1008.91 1008.90 1008.87 1008.82 1008.78 1008.78 1008.87 1009.09 1009.45 1009.94 1010.53 1011.16 1011.77 1012.30 1012.72 1012.99 1013.14 1013.18 1013.17 1013.17 1013.20 1013.32 1013.52 1013.83 1014.22 1014.66 1015.14 1015.63 1016.11 1016.56 1016.97 1017.34 1017.65 1017.89 1018.04 1018.11 1018.10 1018.01 1017.85 1017.66 1017.46 1017.28 1017.14
1008.21 1008.24 1008.28 1008.32 1008.37 1008.46 1008.64 1008.94 1009.37 1009.93 1010.59 1011.28 1011.93 1012.49 1012.90 1013.14 1013.22 1013.16 1013.04 1012.90 1012.80 1012.80 1012.91 1013.14 1013.48 1013.91 1014.39 1014.90 1015.42 1015.92 1016.40 1016.83 1017.22 1017.55 1017.81 1017.98 1018.06 1018.06 1017.97 1017.82 1017.64 1017.44 1017.25
1007.26 1007.35 1007.50 1007.68 1007.87 1008.11 1008.42 1008.84 1009.38 1010.04 1010.78 1011.53 1012.23 1012.82 1013.23 1013.44 1013.45 1013.31 1013.07 1012.80 1012.58 1012.44 1012.43 1012.57 1012.84 1013.21 1013.67 1014.17 1014.70 1015.24 1015.76 1016.26 1016.73 1017.15 1017.51 1017.79 1017.98 1018.07 1018.07 1017.99 1017.84 1017.65 1017.44
1006.15 1006.32 1006.60 1006.94 1007.31 1007.72 1008.19 1008.75 1009.42 1010.18 1011.00 1011.82 1012.57 1013.19 1013.61 1013.80 1013.77 1013.56 1013.23 1012.86 1012.51 1012.25 1012.13 1012.16 1012.34 1012.64 1013.05 1013.52 1014.04 1014.59 1015.14 1015.69 1016.22 1016.71 1017.16 1017.54 1017.83 1018.02 1018.11 1018.09 1017.99 1017.82 1017.60
1005.01 1005.28 1005.69 1006.19 1006.73 1007.32 1007.95 1008.65 1009.42 1010.28 1011.17 1012.05 1012.85 1013.49 1013.93 1014.13 1014.09 1013.85 1013.46 1013.02 1012.58 1012.23 1012.00 1011.93 1012.02 1012.25 1012.60 1013.03 1013.52 1014.05 1014.61 1015.18 1015.74 1016.28 1016.79 1017.23 1017.60 1017.87 1018.03 1018.07 1018.02 1017.88 1017.67
1004.00 1004.34 1004.87 1005.51 1006.21 1006.94 1007.70 1008.51 1009.38 1010.30 1011.24 1012.16 1012.99 1013.67 1014.13 1014.36 1014.33 1014.10 1013.70 1013.23 1012.75 1012.34 1012.04 1011.90 1011.92 1012.08 1012.36 1012.74 1013.20 1013.70 1014.24 1014.80 1015.36 1015.92 1016.44 1016.91 1017.31 1017.62 1017.83 1017.92 1017.91 1017.81 1017.62
1003.21 1003.62 1004.24 1004.99 1005.80 1006.63 1007.48 1008.36 1009.28 1010.23 1011.19 1012.13 1012.98 1013.68 1014.19 1014.45 1014.47 1014.28 1013.92 1013.46 1012.99 1012.56 1012.23 1012.05 1012.02 1012.12 1012.36 1012.70 1013.11 1013.58 1014.08 1014.61 1015.14 1015.67 1016.17 1016.62 1017.02 1017.33 1017.55 1017.67 1017.69 1017.62 1017.46
1002.72 1003.18 1003.87 1004.68 1005.55 1006.44 1007.33 1008.24 1009.16 1010.11 1011.06 1011.99 1012.85 1013.57 1014.11 1014.43 1014.51 1014.38 1014.09 1013.69 1013.26 1012.86 1012.55 1012.36 1012.30 1012.39 1012.59 1012.90 1013.27 1013.70 1014.17 1014.64 1015.12 1015.59 1016.03 1016.43 1016.78 1017.06 1017.26 1017.38 1017.42 1017.37 1017.26
1002.52 1003.03 1003.76 1004.60 1005.49 1006.39 1007.28 1008.17 1009.07 1009.99 1010.91 1011.81 1012.66 1013.39 1013.96 1014.33 1014.49 1014.44 1014.24 1013.93 1013.57 1013.23 1012.96 1012.79 1012.75 1012.84 1013.03 1013.32 1013.68 1014.07 1014.49 1014.92 1015.33 1015.72 1016.08 1016.40 1016.68 1016.90 1017.06 1017.15 1017.19 1017.17 1017.09
1002.59 1003.13 1003.88 1004.72 1005.60 1006.48 1007.34 1008.19 1009.05 1009.92 1010.80 1011.66 1012.49 1013.22 1013.81 1014.23 1014.46 1014.51 1014.40 1014.18 1013.92 1013.66 1013.45 1013.33 1013.32 1013.43 1013.64 1013.93 1014.27 1014.65 1015.04 1015.41 1015.76 1016.08 1016.35 1016.58 1016.77 1016.92 1017.02 1017.08 1017.11 1017.10 1017.05
1002.83 1003.41 1004.15 1004.98 1005.84 1006.68 1007.50 1008.31 1009.11 1009.93 1010.77 1011.60 1012.40 1013.12 1013.73 1014.19 1014.48 1014.60 1014.59 1014.47 1014.30 1014.12 1013.99 1013.93 1013.97 1014.12 1014.35 1014.65 1015.00 1015.37 1015.73 1016.07 1016.37 1016.62 1016.82 1016.97 1017.07 1017.14 1017.19 1017.21 1017.22 1017.21 1017.19
1003.18 1003.78 1004.52 1005.32 1006.14 1006.95 1007.73 1008.50 1009.27 1010.05 1010.84 1011.64 1012.41 1013.13 1013.74 1014.23 1014.57 1014.76 1014.83 1014.80 1014.71 1014.62 1014.56 1014.57 1014.66 1014.84 1015.10 1015.43 1015.79 1016.16 1016.51 1016.83 1017.09 1017.29 1017.43 1017.52 1017.56 1017.57 1017.56 1017.54 1017.53 1017.52 1017.51
1003.59 1004.19 1004.91 1005.68 1006.47 1007.24 1007.99 1008.73 1009.47 1010.23 1011.00 1011.78 1012.53 1013.23 1013.85 1014.36 1014.73 1014.98 1015.11 1015.16 1015.15 1015.13 1015.14 1015.21 1015.35 1015.56 1015.85 1016.19 1016.57 1016.94 1017.29 1017.60 1017.84 1018.02 1018.12 1018.17 1018.17 1018.14 1018.09 1018.05 1018.02 1018.01 1018.00
1004.03 1004.62 1005.30 1006.03 1006.78 1007.52 1008.25 1008.98 1009.71 1010.45 1011.21 1011.97 1012.71 1013.40 1014.02 1014.54 1014.95 1015.24 1015.43 1015.54 1015.61 1015.66 1015.73 1015.84 1016.02 1016.26 1016.57 1016.92 1017.29 1017.67 1018.01 1018.32 1018.56 1018.72 1018.82 1018.85 1018.84 1018.79 1018.72 1018.66 1018.62 1018.60 1018.61
1004.50 1005.05 1005.69 1006.37 1007.08 1007.79 1008.50 1009.21 1009.94 1010.68 1011.43 1012.18 1012.91 1013.60 1014.22 1014.76 1015.19 1015.53 1015.78 1015.95 1016.08 1016.19 1016.31 1016.47 1016.67 1016.92 1017.23 1017.57 1017.94 1018.30 1018.65 1018.95 1019.19 1019.36 1019.47 1019.51 1019.50 1019.45 1019.39 1019.33 1019.28 1019.26 1019.26
1005.01 1005.51 1006.08 1006.71 1007.36 1008.04 1008.73 1009.43 1010.15 1010.89 1011.64 1012.38 1013.10 1013.79 1014.42 1014.98 1015.44 1015.83 1016.14 1016.38 1016.57 1016.75 1016.92 1017.10 1017.32 1017.57 1017.86 1018.18 1018.52 1018.86 1019.19 1019.49 1019.73 1019.92 1020.05 1020.11 1020.13 1020.11 1020.06 1020.01 1019.96 1019.94 1019.93
1005.57 1006.01 1006.51 1007.07 1007.67 1008.30 1008.96 1009.65 1010.36 1011.09 1011.82 1012.56 1013.28 1013.97 1014.61 1015.19 1015.71 1016.15 1016.53 1016.84 1017.11 1017.34 1017.56 1017.77 1017.99 1018.23 1018.49 1018.77 1019.07 1019.38 1019.68 1019.96 1020.21 1020.42 1020.57 1020.68 1020.73 1020.74 1020.72 1020.69 1020.66 1020.63 1020.62
1006.18 1006.55 1006.98 1007.48 1008.02 1008.61 1009.23 1009.90 1010.58 1011.29 1012.02 1012.74 1013.46 1014.16 1014.82 1015.44 1016.01 1016.52 1016.97 1017.36 1017.71 1018.00 1018.26 1018.50 1018.72 1018.94 1019.16 1019.40 1019.65 1019.91 1020.18 1020.44 1020.69 1020.91 1021.09 1021.24 1021.33 1021.39 1021.41 1021.40 1021.38 1021.35 1021.33
1006.82 1007.13 1007.51 1007.95 1008.45 1008.99 1009.58 1010.21 1010.87 1011.56 1012.26 1012.97 1013.69 1014.40 1015.09 1015.75 1016.38 1016.96 1017.49 1017.96 1018.38 1018.74 1019.04 1019.30 1019.52 1019.71 1019.90 1020.08 1020.28 1020.49 1020.72 1020.97 1021.21 1021.45 1021.66 1021.84 1021.98 1022.08 1022.13 1022.15 1022.14 1022.11 1022.07
1007.47 1007.75 1008.09 1008.50 1008.96 1009.47 1010.03 1010.63 1011.26 1011.92 1012.61 1013.31 1014.02 1014.74 1015.46 1016.16 1016.85 1017.50 1018.10 1018.65 1019.13 1019.55 1019.89 1020.16 1020.38 1020.55 1020.70 1020.84 1020.99 1021.16 1021.36 1021.58 1021.82 1022.06 1022.30 1022.51 1022.69 1022.82 1022.90 1022.94 1022.94 1022.91 1022.86
1008.10 1008.38 1008.73 1009.12 1009.57 1010.07 1010.60 1011.18 1011.79 1012.43 1013.09 1013.79 1014.50 1015.23 1015.97 1016.71 1017.44 1018.14 1018.80 1019.41 1019.94 1020.40 1020.77 1021.05 1021.27 1021.42 1021.55 1021.66 1021.77 1021.91 1022.08 1022.28 1022.51 1022.76 1023.01 1023.24 1023.44 1023.60 1023.70 1023.75 1023.75 1023.71 1023.64
1008.72 1009.03 1009.40 1009.81 1010.27 1010.77 1011.30 1011.87 1012.46 1013.09 1013.74 1014.42 1015.13 1015.87 1016.62 1017.39 1018.14 1018.88 1019.57 1020.21 1020.77 1021.25 1021.63 1021.92 1022.13 1022.28 1022.38 1022.47 1022.57 1022.68 1022.84 1023.03 1023.25 1023.50 1023.75 1023.99 1024.20 1024.36 1024.47 1024.52 1024.51 1024.46 1024.37
1009.33 1009.70 1010.12 1010.57 1011.05 1011.57 1012.11 1012.68 1013.27 1013.89 1014.54 1015.21 1015.92 1016.65 1017.40 1018.17 1018.93 1019.66 1020.36 1021.00 1021.56 1022.03 1022.41 1022.70 1022.90 1023.04 1023.15 1023.23 1023.32 1023.43 1023.58 1023.76 1023.98 1024.22 1024.46 1024.69 1024.89 1025.05 1025.14 1025.18 1025.16 1025.09 1024.99
1009.97 1010.41 1010.88 1011.38 1011.90 1012.44 1013.00 1013.58 1014.18 1014.80 1015.44 1016.11 1016.81 1017.53 1018.26 1019.01 1019.74 1020.45 1021.12 1021.72 1022.26 1022.70 1023.06 1023.33 1023.53 1023.67 1023.78 1023.87 1023.97 1024.08 1024.23 1024.42 1024.62 1024.85 1025.07 1025.28 1025.45 1025.57 1025.65 1025.66 1025.62 1025.54 1025.42
1010.66 1011.16 1011.68 1012.23 1012.79 1013.36 1013.94 1014.53 1015.14 1015.76 1016.40 1017.06 1017.74 1018.43 1019.13 1019.83 1020.52 1021.17 1021.78 1022.33 1022.81 1023.22 1023.54 1023.79 1023.98 1024.13 1024.24 1024.35 1024.46 1024.60 1024.75 1024.93 1025.13 1025.33 1025.52 1025.69 1025.82 1025.91 1025.94 1025.93 1025.87 1025.78 1025.65
Thickness
5777 5777 5776 5775 5773 5771 5767 5764 5761 5758 5755 5751 5747 5743 5741 5741 5740 5739 5739 5738 5737 5736 5734 5732 5730 5728 5726 5724 5723 5721 5719 5718 5718 5717 5715 5716 5717 5717 5717 5716 5716 5716 5716
5770 5772 5772 5771 5770 5768 5765 5762 5759 5756 5754 5751 5747 5743 5740 5738 5737 5736 5736 5735 5734 5733 5731 5730 5727 5725 5723 5720 5719 5717 5715 5714 5714 5711 5708 5705 5707 5711 5712 5712 5711 5711 5711
5766 5766 5766 5766 5767 5765 5765 5763 5757 5754 5751 5749 5745 5741 5737 5734 5732 5731 5731 5731 5730 5729 5728 5727 5725 5722 5720 5717 5715 5714 5712 5710 5709 5708 5705 5701 5698 5700 5704 5705 5706 5705 5706
5766 5764 5763 5762 5763 5764 5763 5760 5755 5752 5748 5745 5742 5738 5733 5729 5728 5727 5727 5728 5727 5726 5725 5723 5721 5719 5716 5714 5712 5711 5709 5707 5704 5703 5702 5701 5699 5695 5694 5698 5700 5701 5701
5764 5763 5762 5762 5761 5760 5758 5756 5752 5748 5745 5742 5738 5734 5731 5728 5726 5724 5723 5723 5723 5722 5721 5720 5717 5715 5712 5710 5709 5707 5706 5704 5701 5699 5697 5696 5695 5693 5691 5690 5692 5694 5696
5761 5761 5760 5758 5756 5755 5752 5750 5747 5743 5741 5737 5733 5730 5727 5724 5721 5719 5718 5718 5718 5718 5717 5715 5713 5711 5709 5707 5706 5704 5702 5700 5698 5696 5695 5693 5691 5689 5688 5686 5686 5687 5690
5757 5756 5753 5751 5750 5748 5746 5745 5742 5737 5735 5732 5729 5727 5724 5721 5718 5716 5714 5713 5713 5713 5712 5712 5709 5708 5706 5704 5703 5701 5699 5697 5695 5693 5692 5691 5690 5688 5686 5684 5682 5682 5685
5753 5752 5751 5749 5746 5744 5742 5740 5737 5733 5731 5728 5725 5723 5721 5718 5715 5714 5712 5710 5710 5709 5709 5708 5707 5705 5703 5702 5700 5698 5696 5694 5692 5690 5688 5688 5687 5686 5684 5682 5679 5678 5679
5749 5748 5747 5745 5743 5741 5738 5736 5733 5730 5728 5725 5721 5720 5717 5715 5712 5710 5709 5707 5707 5706 5705 5705 5703 5701 5700 5698 5697 5694 5692 5690 5688 5686 5684 5683 5683 5682 5681 5680 5678 5675 5673
5744 5744 5742 5741 5740 5737 5734 5732 5729 5726 5724 5721 5719 5717 5714 5712 5709 5707 5705 5704 5703 5702 5701 5700 5698 5696 5695 5694 5692 5689 5687 5685 5683 5681 5680 5679 5678 5677 5677 5676 5675 5674 5672
5739 5738 5736 5736 5734 5732 5729 5727 5724 5722 5720 5718 5715 5713 5711 5708 5706 5703 5701 5700 5699 5697 5695 5694 5692 5691 5689 5688 5686 5684 5682 5680 5678 5676 5675 5673 5673 5673 5672 5671 5671 5670 5669
5733 5731 5730 5729 5727 5725 5723 5721 5719 5717 5715 5713 5711 5709 5706 5704 5702 5700 5698 5696 5694 5693 5691 5689 5687 5686 5684 5683 5681 5678 5677 5674 5672 5671 5669 5668 5669 5668 5667 5666 5666 5665 5664
5726 5725 5724 5723 5722 5720 5718 5716 5714 5712 5711 5709 5706 5703 5701 5699 5697 5695 5693 5691 5689 5687 5686 5684 5682 5681 5679 5677 5676 5674 5672 5670 5668 5666 5665 5664 5663 5663 5662 5661 5661 5660 5660
5719 5718 5717 5716 5715 5714 5713 5711 5708 5707 5705 5703 5701 5698 5696 5694 5692 5690 5688 5686 5685 5683 5681 5680 5678 5676 5675 5673 5671 5669 5667 5664 5662 5661 5660 5660 5659 5659 5658 5657 5656 5655 5654
5713 5713 5711 5710 5709 5707 5706 5703 5702 5701 5700 5698 5696 5693 5691 5689 5687 5685 5684 5682 5680 5678 5676 5674 5673 5672 5671 5669 5666 5664 5662 5659 5657 5657 5656 5655 5655 5655 5654 5653 5651 5650 5649
5708 5707 5706 5704 5702 5701 5699 5698 5697 5696 5695 5693 5691 5689 5686 5684 5682 5681 5680 5677 5675 5673 5671 5669 5667 5666 5666 5664 5662 5660 5658 5655 5653 5652 5651 5651 5651 5650 5649 5649 5647 5646 5644
5703 5702 5700 5698 5697 5695 5694 5692 5692 5690 5689 5687 5685 5683 5682 5680 5678 5677 5675 5673 5670 5668 5665 5664 5662 5661 5660 5659 5657 5656 5653 5651 5649 5647 5647 5647 5646 5645 5644 5643 5642 5641 5640
5698 5697 5695 5693 5692 5690 5688 5687 5686 5684 5683 5682 5680 5679 5677 5675 5673 5671 5669 5667 5665 5662 5660 5659 5657 5655 5655 5653 5652 5650 5648 5647 5645 5644 5642 5641 5640 5640 5639 5638 5636 5635 5634
5694 5691 5689 5687 5685 5684 5682 5680 5679 5677 5676 5676 5675 5674 5673 5671 5668 5666 5664 5662 5659 5657 5655 5654 5652 5650 5649 5648 5646 5645 5643 5641 5640 5639 5638 5636 5635 5634 5633 5632 5630 5629 5629
5686 5684 5682 5679 5677 5677 5675 5673 5671 5670 5670 5670 5670 5669 5668 5666 5664 5661 5659 5657 5654 5652 5650 5648 5646 5645 5644 5642 5641 5639 5638 5636 5635 5634 5632 5631 5630 5629 5627 5626 5624 5623 5623
5678 5677 5674 5672 5671 5670 5668 5665 5664 5664 5665 5665 5664 5663 5662 5661 5659 5656 5654 5651 5649 5646 5644 5643 5641 5639 5638 5636 5635 5634 5632 5630 5629 5628 5627 5626 5625 5623 5622 5620 5619 5618 5617
5669 5668 5666 5664 5663 5662 5660 5659 5658 5659 5659 5658 5657 5656 5655 5654 5653 5650 5647 5645 5643 5640 5638 5636 5634 5633 5632 5631 5630 5628 5627 5626 5624 5623 5622 5621 5620 5618 5617 5615 5614 5612 5610
5661 5659 5657 5655 5655 5654 5654 5652 5652 5652 5652 5650 5649 5648 5647 5646 5644 5642 5640 5638 5636 5634 5632 5630 5629 5628 5627 5625 5624 5623 5621 5620 5619 5618 5616 5615 5613 5612 5611 5610 5608 5606 5605
5652 5650 5648 5648 5647 5647 5646 5645 5645 5645 5644 5642 5641 5640 5639 5638 5636 5635 5633 5631 5629 5627 5626 5625 5624 5622 5621 5620 5619 5617 5616 5614 5613 5612 5610 5608 5607 5606 5605 5604 5602 5601 5599
5644 5643 5641 5640 5640 5640 5638 5637 5637 5637 5636 5635 5634 5632 5631 5630 5628 5627 5625 5625 5623 5622 5621 5620 5619 5617 5616 5615 5613 5612 5610 5609 5608 5606 5604 5602 5601 5599 5598 5597 5596 5595 5593
5636 5635 5634 5633 5632 5632 5631 5630 5629 5629 5628 5627 5626 5625 5623 5622 5621 5620 5618 5617 5617 5616 5615 5614 5613 5612 5610 5609 5607 5605 5604 5602 5600 5598 5597 5596 5595 5594 5593 5592 5591 5589 5588